Погода Сегян-Кюель

Погода Сегян-Кюель : погода сейчас, прогноз погоды и архив. Всё, что Вы хотите узнать о погоде Сегян-Кюель!

Поиск расширенной информации на нашем сайте:

Другие новости

Новости СМИ2

Главная страница сайта

Новости сайта

03.07.2017

Напоминаем, что на нашем специализированном сайте Метеоцентр.Азия вы можете получить высокодетализированные автоматические прогнозы погоды по пунктам России, СНГ и мира в авиационном формате (включающие направление и скорость ветра, видимость, явления погоды, количество и форму облачности, нижнюю и верхнюю границу облачности).

Рекомендуем: недорогая финская сауна

Погода Сегян-Кюель - сегодня

Время (UTC), дата Ветер
(°,м/с) 
Видим.   Явления Облачность Т
(°С)
Тd
(°С)
f(%) Тe
(°С)
Pmin
(гПа)
dP
(гПа)
Po
(мм)
O2
(г/м3)
Тmin Tmax R s Состояние
почвы
09 12.10.18 тихо ()   20000 м    10/8 1000 м средняя, верхняя 
[Sc|Ac trans|Ci fib]
-2.8 -7.3 71 -3  1015.1  0.6  742  303           
12 12.10.18 тихо ()   20000 м    8/0 средняя, верхняя 
[Sc|Ac trans|Ci fib]
-5.9 -8.6 81 -6  1015.9  0.4  742  306    -1       
15 12.10.18 тихо ()   20000 м    10/8 1000 м средняя, верхняя 
[Sc|Ac trans|Ci fib]
-10.1 -10.7 95 -10  1016.7  0.4  742  312           
18 12.10.18 тихо ()   20000 м    8/4 1000 м средняя, верхняя 
[Sc|Ac trans|Ci fib]
-11.4 -12 95 -11  1016.9  0.1  742  313           
21 12.10.18 310 (СЗ) 20000 м    6/1 1000 м верхняя 
[Sc|Ci fib]
-14.1 -15.5 89 -14  1017.8  0.5  743  317           
03 13.10.18 тихо ()   20000 м    10/9 1000 м верхняя 
[Sc|Ci fib]
-4.7 -7.5 81 -5  1017.6  0.1  743  306           
06 13.10.18 тихо ()   20000 м    10/6 1000 м средняя, верхняя 
[Sc|Ac trans|Ci fib]
-0.5 -5.4 69 -1  1017.3  0.1  743  301           
09 13.10.18 010 (С) 20000 м    3/1 1000 м верхняя 
[Sc|Ci fib]
-0.5 -10.2 48 -2  1018.5  1.2  744  301           
12 13.10.18 020 (С) 20000 м    ясно 
-1.4 -10.4 50 -4  1020  1.2  745  303    +1.5       
15 13.10.18 010 (С) 20000 м    ясно 
-1.7 -10.9 49 -4  1021.3  1.3  746  304           
18 13.10.18 010 (С) 20000 м    ясно 
-2 -12 46 -4  1022.3  0.9  747  304           
21 13.10.18 020 (С) 20000 м    1/0 верхняя 
[Ci fib]
-3.4 -12.9 48 -6  1023.7  1.3  748  306           
03 14.10.18 030 (СВ) 20000 м    3/0 верхняя 
[Ci fib]
+1 -11.4 39 -1  1025.4  0.8  749  302           
06 14.10.18 240 (ЮЗ) 20000 м    3/0 верхняя 
[Ci fib]
+0.3 -10.5 44 -1  1025.8  0.4  750  303           
09 14.10.18 190 (Ю) 20000 м    1/0 верхняя 
[Ci fib]
-6.1 -9.2 79 -8  1028.2  1.7  751  310           
15 14.10.18 270 (З) 20000 м  туман на расстоянии  10/0 верхняя 
[Cs]
-8.4 -9.1 95 -8  1030.7  1.1  753  314           
18 14.10.18 280 (З) 20000 м    10/0 верхняя 
[Cs]
-7.7 -8.7 93 -7  1030.8  0.2  753  313           
21 14.10.18 030 (СВ) 20000 м    10/0 средняя, верхняя 
[Ac trans|Cs]
-9.2 -10.8 88 -9  1031.6  0.6  753  315           
00 15.10.18 тихо ()   20000 м    10/8 600 м средняя, верхняя 
[St|Ac trans|Ci fib]
-9.9 -12.5 81 -10  1032.2  0.5  754  316  -10.1      мокрый или
старый снег
10-40% 
03 15.10.18 тихо ()   20000 м    8/8 600 м 
[St]
-7.9 -11 78 -8  1032.1  0.1  754  314           
06 15.10.18 180 (Ю) 20000 м    10/8 600 м кучево-дожд., средняя, верхняя 
[Cb cap|Ac trans|Cs]
-5.2 -9.3 73 -5  1031.9  0.1  754  311           
09 15.10.18 260 (З) 20000 м    10/8 600 м кучево-дожд., средняя, верхняя 
[Cb cap|Ac trans|Cs]
-7.7 -9.6 86 -7  1032.1  754  313           
12 15.10.18 тихо ()   20000 м    10/8 600 м кучево-дожд., средняя, верхняя 
[Cb cap|Ac trans|Cs]
-8.7 -9.8 92 -9  1032.9  0.7  754  315    +0.2       
15 15.10.18 тихо ()   20000 м    10/8 600 м кучево-дожд., средняя, верхняя 
[Cb cap|Ac trans|Cs]
-8.1 -9.6 89 -8  1032.1  -0.8  754  314           
18 15.10.18 010 (С) 20000 м    10/8 600 м кучево-дожд., средняя, верхняя 
[Cb cap|Ac trans|Cs]
-8.5 -9.6 92 -8  1031.6  -0.5  753  314           
Время (UTC), дата Ветер
(°,м/с) 
Видим.   Явления Облачность Т
(°С)
Тd
(°С)
f(%) Тe
(°С)
Pmin
(гПа)
dP
(гПа)
Po
(мм)
O2
(г/м3)
Тmin Tmax R s Состояние
почвы

Для получения пояснительной информации подведите курсор к названию столбца.

ПОГОДА Сегян-Кюель - архив

Всё, что Вы хотите узнать о погоде Сегян-Кюель - удобно и подробно!

Выберите нужную дату (начиная с 1 января 2015* года) и нажмите кнопку "Найти".
Будут отображены архивные сводки погоды по пункту Сегян-Кюель, начиная с указанной даты.


Отображать данные в формате CSV (для использования в таблицах Excel)


Внимание! Наш архив погоды предназначен исключительно для личного некоммерческого использования в познавательных целях. Если Вам необходимы официальные справки о состоянии погоды (для производственных, юридических, коммерческих и т.п. целей), обращайтесь в органы Росгидромета.

*Примечание: данная дата относится к архиву по метеостанциям СССР (Россия, СНГ, Балтия).
Архив по метеостанциям Зарубежной Европы и Азии (кроме Китая) хранится 10 дней, по другим регионам земного шара (Китай, Африка, Америка, Австралия, Океания) - 1 день.

Сегян-Кюель - район местоположения метеостанции


Название, широта, долгота, высота метеостанции:
Сегян-Кюель 64.00°ш. 130.30°д. 211 м над ур. моря [Российская Федерация]

Дополнительная информация

В oтличие oт бoльшинства пoгoдных сайтoв мы публикуем пoдрoбную метеoинфoрмацию в детальнoм прoфессиoнальнoм фoрмате.

Характеристики температуры и влажнoсти вoздуха измеряются на высoте 2 м в тени вдали oт зданий и деревьев.
Скoрoсть ветра измеряется на высoте 10 м (на урoвне рoста челoвека скoрoсть ветра ниже в 1.5-2 раза). Если метеoстанция нахoдится в гoрoде или в лесу, тo скoрoсть ветра занижена на 2-4 м/с пo сравнению с oткрытым местoм. Скoрoсть ветра над акватoриями крупных рек и oзёр, а также на вершинах хoлмoв на 2-5 м/с выше, чем в oбычных услoвиях.
Атмoсфернoе давление в разных тoчках местнoсти мoжет значительнo oтличаться oт давления на метеoстанции, в зависимoсти oт услoвий рельефа (при пoдъёме на 10 м давление пoнижается примернo на 1 мм рт.ст.).